Temp
10 10 10 10 10 10 10 9 9 9 9 9 8 8 8 8 8 8 7 7 7 7 7 7 6 6 6 6 6 5 5 5 5 4 4 4 4 4 4 4 4 4 4 4 3 3 3 3 3 3 3 3 3 3 3 3 3 3 3 2 2 2 2 1 1 1 0 0 0
10 10 10 10 10 10 9 9 9 9 9 8 8 8 8 8 8 7 7 7 7 7 7 6 6 6 6 6 5 5 5 5 4 4 4 4 4 4 4 4 4 4 3 3 3 3 3 3 3 3 3 3 3 3 3 3 3 2 2 2 2 2 1 1 1 0 0 0 -0
10 10 10 10 10 10 9 9 9 9 8 8 8 8 8 8 7 7 7 7 7 7 6 6 6 6 6 5 5 5 5 4 4 4 4 4 4 4 4 4 3 3 3 3 3 3 3 3 3 3 3 3 3 3 3 2 2 2 2 2 2 1 1 1 0 0 -0 -0 -0
10 10 10 10 10 9 9 9 9 9 8 8 8 8 7 7 7 7 7 7 6 6 6 6 6 6 5 5 5 5 4 4 4 4 4 4 4 3 3 3 3 3 3 3 3 3 3 3 3 3 3 3 3 2 2 2 2 2 2 1 1 1 1 0 0 -0 -0 -1 -1
10 10 10 10 9 9 9 9 9 8 8 8 8 7 7 7 7 7 7 6 6 6 6 6 5 5 5 5 5 4 4 4 4 4 3 3 3 3 3 3 3 3 3 3 3 3 3 3 3 2 2 2 2 2 2 2 2 2 1 1 1 1 0 0 -0 -1 -1 -1 -1
10 10 10 9 9 9 9 9 9 8 8 8 8 7 7 7 7 7 6 6 6 6 6 5 5 5 5 5 4 4 4 4 3 3 3 3 3 3 3 3 3 3 3 3 3 3 3 2 2 2 2 2 2 2 2 2 1 1 1 1 1 0 -0 -0 -1 -1 -1 -1 -2
10 10 10 9 9 9 9 9 8 8 8 8 7 7 7 7 7 6 6 6 6 6 5 5 5 5 5 4 4 4 4 3 3 3 3 3 3 3 3 3 3 3 3 3 2 2 2 2 2 2 2 2 2 2 1 1 1 1 0 0 0 -0 -0 -1 -1 -1 -1 -2 -2
10 10 9 9 9 9 8 8 8 8 7 7 7 7 7 7 6 6 6 6 6 6 5 5 5 5 4 4 4 4 3 3 3 3 3 3 3 3 3 3 3 3 2 2 2 2 2 2 2 2 2 1 1 1 1 1 0 0 0 -0 -0 -0 -1 -1 -1 -2 -2 -2 -2
9 9 9 9 9 8 8 8 8 7 7 7 7 7 7 6 6 6 6 6 6 5 5 5 5 4 4 4 3 3 3 3 3 3 3 3 3 3 3 3 2 2 2 2 2 2 2 2 2 2 1 1 1 1 1 0 0 -0 -0 -0 -1 -1 -1 -1 -2 -2 -2 -2 -3
9 9 9 9 8 8 8 8 7 7 7 7 7 7 6 6 6 6 6 6 5 5 5 5 4 4 4 3 3 3 3 3 3 3 3 2 2 2 2 2 2 2 2 2 2 2 2 2 1 1 1 1 1 0 0 -0 -0 -1 -1 -1 -1 -1 -1 -2 -2 -2 -2 -3 -3
9 9 8 8 8 8 8 7 7 7 7 7 6 6 6 6 6 6 6 5 5 5 5 4 4 4 3 3 3 3 3 3 3 2 2 2 2 2 2 2 2 2 2 2 2 2 2 1 1 1 1 0 0 -0 -0 -0 -1 -1 -1 -1 -1 -2 -2 -2 -2 -3 -3 -3 -3
9 8 8 8 8 7 7 7 7 7 6 6 6 6 6 6 6 6 5 5 5 4 4 4 4 3 3 3 3 3 2 2 2 2 2 2 2 2 2 2 2 2 2 2 2 1 1 1 1 1 0 0 -0 -0 -1 -1 -1 -1 -1 -1 -2 -2 -2 -3 -3 -3 -3 -4 -4
8 8 8 8 7 7 7 7 7 6 6 6 6 6 6 6 6 5 5 5 4 4 4 3 3 3 3 3 2 2 2 2 2 2 2 2 2 2 2 2 2 2 2 2 1 1 1 1 0 0 -0 -0 -0 -1 -1 -1 -1 -2 -2 -2 -2 -3 -3 -3 -3 -4 -4 -4 -4
8 8 8 7 7 7 7 7 6 6 6 6 6 6 6 6 5 5 5 5 4 4 4 3 3 3 2 2 2 2 2 2 2 2 2 2 2 2 2 2 2 2 2 1 1 1 1 0 0 -0 -1 -1 -1 -1 -1 -1 -2 -2 -2 -2 -3 -3 -3 -4 -4 -4 -4 -5 -5
8 8 7 7 7 7 7 6 6 6 6 6 6 6 5 5 5 5 5 4 4 4 3 3 3 2 2 2 2 2 2 2 2 2 2 2 2 2 2 2 2 2 1 1 1 1 0 0 -0 -1 -1 -1 -1 -1 -1 -2 -2 -2 -2 -3 -3 -3 -4 -4 -4 -4 -5 -5 -5
7 7 7 7 7 6 6 6 6 6 6 5 5 5 5 5 5 5 4 4 4 3 3 3 2 2 2 2 2 2 2 2 2 2 2 2 2 2 2 2 2 1 1 1 1 0 0 -0 -1 -1 -1 -1 -1 -2 -2 -2 -2 -2 -3 -3 -4 -4 -4 -4 -5 -5 -5 -5 -5
7 7 7 7 6 6 6 6 6 6 5 5 5 5 5 5 5 4 4 4 3 3 3 2 2 2 2 2 2 2 2 2 2 2 2 2 2 2 2 1 1 1 1 1 0 0 -0 -1 -1 -1 -1 -2 -2 -2 -2 -2 -3 -3 -3 -4 -4 -4 -4 -5 -5 -5 -5 -5 -6
7 7 7 6 6 6 6 6 5 5 5 5 5 5 5 4 4 4 4 3 3 3 3 2 2 2 2 2 2 2 2 2 2 2 2 2 2 1 1 1 1 1 1 0 -0 -0 -1 -1 -1 -1 -2 -2 -2 -2 -2 -3 -3 -3 -4 -4 -4 -4 -5 -5 -5 -5 -5 -5 -6
7 6 6 6 6 6 6 5 5 5 5 5 5 5 4 4 4 4 3 3 3 3 2 2 2 2 2 2 2 2 2 2 2 2 2 1 1 1 1 1 1 1 0 -0 -0 -1 -1 -1 -1 -2 -2 -2 -2 -2 -3 -3 -3 -4 -4 -4 -4 -5 -5 -5 -5 -5 -5 -6 -6
6 6 6 6 6 6 5 5 5 5 5 4 4 4 4 4 4 3 3 3 3 2 2 2 2 2 2 2 2 2 2 2 2 1 1 1 1 1 1 1 0 0 -0 -0 -1 -1 -1 -1 -2 -2 -2 -2 -2 -3 -3 -3 -4 -4 -4 -4 -5 -5 -5 -5 -5 -5 -5 -6 -6
6 6 6 6 5 5 5 5 5 4 4 4 4 4 4 4 3 3 3 3 2 2 2 2 2 2 2 2 2 2 2 1 1 1 1 1 1 1 1 0 0 -0 -0 -1 -1 -1 -1 -2 -2 -2 -2 -3 -3 -3 -3 -4 -4 -4 -4 -4 -5 -5 -5 -5 -5 -5 -6 -6 -6
6 6 6 5 5 5 5 4 4 4 4 4 4 4 4 3 3 3 3 2 2 2 2 2 2 2 2 2 2 1 1 1 1 1 1 1 1 1 0 0 -0 -0 -1 -1 -1 -1 -2 -2 -2 -2 -3 -3 -3 -4 -4 -4 -4 -4 -4 -5 -5 -5 -5 -5 -5 -6 -6 -6 -6
6 5 5 5 5 5 4 4 4 4 4 4 4 4 3 3 3 3 2 2 2 2 2 2 2 1 1 1 1 1 1 1 1 1 1 1 1 0 0 -0 -0 -1 -1 -1 -1 -2 -2 -2 -2 -3 -3 -3 -4 -4 -4 -4 -4 -4 -5 -5 -5 -5 -5 -5 -6 -6 -6 -6 -7
5 5 5 5 5 4 4 4 4 4 4 4 4 3 3 3 3 3 2 2 2 2 2 1 1 1 1 1 1 1 1 1 1 1 1 1 0 0 -0 -0 -0 -1 -1 -1 -2 -2 -2 -3 -3 -3 -4 -4 -4 -4 -4 -4 -5 -5 -5 -5 -5 -5 -5 -6 -6 -6 -6 -7 -7
5 5 5 5 4 4 4 4 4 4 4 4 3 3 3 3 3 2 2 2 2 2 1 1 1 1 1 1 1 1 1 1 1 1 1 0 0 0 -0 -0 -1 -1 -1 -1 -2 -2 -3 -3 -3 -4 -4 -4 -4 -4 -4 -5 -5 -5 -5 -5 -5 -5 -6 -6 -6 -6 -7 -7 -7
5 5 4 4 4 4 4 4 4 4 4 3 3 3 3 3 2 2 2 2 2 1 1 1 1 1 1 1 1 1 1 1 1 0 0 0 0 -0 -0 -1 -1 -1 -1 -2 -2 -2 -3 -3 -4 -4 -4 -4 -4 -5 -5 -5 -5 -5 -5 -5 -5 -6 -6 -6 -6 -7 -7 -7 -7
5 4 4 4 4 4 4 4 4 4 3 3 3 3 3 2 2 2 2 1 1 1 1 1 1 1 1 1 1 1 1 1 0 0 0 -0 -0 -0 -1 -1 -1 -1 -2 -2 -2 -3 -3 -3 -4 -4 -4 -5 -5 -5 -5 -5 -5 -5 -5 -5 -6 -6 -6 -6 -6 -7 -7 -7 -7
4 4 4 4 4 4 4 4 4 3 3 3 3 3 2 2 2 2 1 1 1 1 1 1 1 1 1 1 1 1 1 1 0 0 -0 -0 -1 -1 -1 -1 -1 -2 -2 -2 -3 -3 -3 -4 -4 -4 -5 -5 -5 -5 -5 -5 -5 -5 -5 -6 -6 -6 -6 -6 -7 -7 -7 -7 -8
4 4 4 4 4 3 3 3 3 3 3 3 2 2 2 2 2 1 1 1 1 1 1 1 1 1 1 1 1 1 1 0 0 -0 -0 -1 -1 -1 -1 -1 -2 -2 -2 -2 -3 -3 -3 -4 -4 -5 -5 -5 -5 -5 -5 -5 -5 -5 -6 -6 -6 -6 -6 -6 -7 -7 -7 -8 -8
4 4 4 3 3 3 3 3 3 3 3 2 2 2 2 1 1 1 1 1 1 1 1 1 1 1 1 1 1 1 0 0 -0 -0 -1 -1 -1 -1 -1 -2 -2 -2 -2 -3 -3 -3 -4 -4 -5 -5 -5 -5 -5 -5 -5 -5 -5 -6 -6 -6 -6 -6 -6 -7 -7 -7 -7 -8 -8
4 4 3 3 3 3 3 3 3 3 2 2 2 2 1 1 1 1 1 1 1 1 1 1 1 1 1 1 1 0 0 -0 -0 -1 -1 -1 -1 -2 -2 -2 -2 -2 -3 -3 -3 -4 -4 -5 -5 -5 -5 -5 -5 -5 -5 -5 -6 -6 -6 -6 -6 -6 -7 -7 -7 -7 -8 -8 -8
3 3 3 3 3 3 3 3 3 2 2 2 2 1 1 1 1 1 1 1 1 1 1 1 1 1 1 1 0 0 -0 -0 -1 -1 -1 -2 -2 -2 -2 -2 -2 -2 -3 -3 -4 -4 -5 -5 -5 -5 -5 -5 -5 -5 -6 -6 -6 -6 -6 -6 -6 -7 -7 -7 -7 -7 -8 -8 -8
3 3 3 3 3 3 3 2 2 2 2 2 1 1 1 1 1 1 1 1 1 1 1 1 1 1 0 0 0 -0 -0 -1 -1 -1 -2 -2 -2 -2 -2 -2 -3 -3 -3 -4 -4 -5 -5 -5 -5 -6 -6 -6 -6 -6 -6 -6 -6 -6 -6 -6 -6 -7 -7 -7 -7 -8 -8 -8 -8
3 3 3 3 3 3 2 2 2 2 1 1 1 1 1 1 1 1 1 1 1 1 1 1 1 0 0 -0 -0 -0 -1 -1 -1 -2 -2 -2 -2 -2 -2 -3 -3 -3 -4 -4 -5 -5 -5 -5 -6 -6 -6 -6 -6 -6 -6 -6 -6 -6 -6 -6 -7 -7 -7 -7 -7 -8 -8 -8 -8
3 3 3 3 2 2 2 2 2 1 1 1 1 1 1 1 1 1 1 1 1 1 1 1 0 0 -0 -0 -1 -1 -1 -1 -2 -2 -2 -2 -2 -3 -3 -3 -3 -4 -4 -4 -5 -5 -5 -5 -6 -6 -6 -6 -6 -6 -6 -6 -6 -6 -6 -7 -7 -7 -7 -7 -8 -8 -8 -8 -8
3 3 3 2 2 2 2 2 1 1 1 1 1 1 1 1 1 1 1 1 1 1 1 0 0 -0 -0 -1 -1 -1 -1 -2 -2 -2 -2 -3 -3 -3 -3 -3 -4 -4 -4 -5 -5 -5 -5 -6 -6 -6 -6 -6 -6 -6 -6 -6 -6 -6 -7 -7 -7 -7 -7 -8 -8 -8 -8 -8 -8
3 2 2 2 2 2 1 1 1 1 1 1 1 1 1 1 1 1 1 1 1 0 0 0 -0 -0 -1 -1 -1 -1 -2 -2 -2 -2 -2 -3 -3 -3 -4 -4 -4 -4 -5 -5 -5 -5 -6 -6 -6 -6 -6 -6 -6 -6 -6 -6 -6 -7 -7 -7 -7 -7 -8 -8 -8 -8 -8 -8 -8
2 2 2 2 2 1 1 1 1 1 1 0 0 0 0 1 1 0 0 0 0 0 0 -0 -0 -1 -1 -1 -1 -1 -2 -2 -2 -2 -3 -3 -3 -4 -4 -4 -4 -5 -5 -5 -5 -6 -6 -6 -6 -6 -6 -6 -6 -6 -6 -6 -7 -7 -7 -7 -8 -8 -8 -8 -8 -8 -9 -8 -8
2 2 2 1 1 1 1 1 0 0 0 0 0 0 0 0 0 0 0 0 -0 -0 -0 -0 -1 -1 -1 -1 -2 -2 -2 -2 -2 -3 -3 -3 -4 -4 -4 -5 -5 -5 -5 -5 -6 -6 -6 -6 -7 -6 -6 -6 -6 -6 -6 -7 -7 -7 -7 -8 -8 -8 -8 -8 -8 -8 -8 -8 -8
2 1 1 1 1 1 0 0 0 0 0 0 0 0 0 0 0 0 0 -0 -0 -1 -1 -1 -1 -1 -1 -2 -2 -2 -2 -2 -2 -3 -3 -4 -4 -4 -5 -5 -5 -5 -5 -6 -6 -6 -7 -7 -7 -7 -7 -7 -7 -7 -7 -7 -7 -7 -8 -8 -8 -8 -8 -8 -9 -8 -8 -8 -8
1 1 1 1 1 0 0 0 0 0 0 0 0 0 0 0 0 0 -0 -0 -1 -1 -1 -1 -1 -1 -1 -2 -2 -2 -2 -2 -2 -3 -3 -4 -4 -4 -5 -5 -5 -6 -6 -6 -6 -7 -7 -7 -7 -7 -7 -7 -7 -7 -7 -7 -8 -8 -8 -8 -8 -8 -8 -9 -9 -8 -8 -8 -8
Height
1490 1490 1490 1491 1491 1491 1492 1492 1492 1492 1492 1492 1492 1492 1492 1491 1491 1491 1490 1490 1489 1489 1488 1487 1487 1486 1485 1484 1484 1483 1482 1482 1481 1480 1479 1479 1478 1477 1476 1475 1475 1474 1474 1473 1472 1471 1471 1470 1469 1469 1468 1467 1466 1465 1464 1463 1461 1460 1459 1458 1457 1455 1454 1453 1452 1451 1450 1449 1448
1489 1490 1490 1490 1491 1491 1491 1491 1491 1491 1491 1491 1491 1491 1491 1491 1490 1490 1490 1489 1489 1488 1487 1487 1486 1485 1484 1484 1483 1482 1482 1481 1480 1479 1479 1478 1477 1476 1476 1475 1474 1474 1473 1472 1471 1470 1470 1469 1468 1467 1466 1465 1464 1463 1462 1461 1460 1459 1457 1456 1455 1454 1453 1451 1450 1449 1448 1447 1445
1489 1489 1489 1490 1490 1490 1490 1491 1491 1491 1490 1490 1490 1490 1490 1490 1490 1490 1489 1489 1488 1488 1487 1486 1485 1485 1484 1483 1482 1482 1481 1480 1479 1479 1478 1477 1476 1476 1475 1474 1474 1473 1472 1471 1470 1469 1469 1468 1467 1466 1465 1464 1463 1462 1461 1459 1458 1457 1456 1454 1453 1452 1451 1449 1449 1447 1446 1445 1444
1489 1489 1489 1489 1490 1490 1490 1490 1490 1490 1490 1490 1490 1489 1489 1489 1489 1489 1489 1488 1488 1487 1486 1485 1485 1484 1483 1483 1482 1481 1480 1479 1479 1478 1477 1477 1476 1475 1474 1474 1473 1472 1471 1470 1469 1469 1468 1467 1466 1465 1464 1462 1461 1460 1459 1458 1457 1455 1454 1453 1452 1450 1449 1448 1447 1446 1444 1443 1442
1488 1489 1489 1489 1489 1489 1489 1489 1489 1489 1489 1489 1489 1489 1489 1489 1489 1488 1488 1487 1487 1486 1485 1484 1484 1483 1482 1482 1481 1480 1479 1479 1478 1477 1477 1476 1475 1474 1474 1473 1472 1471 1470 1469 1469 1468 1466 1465 1464 1464 1462 1461 1460 1459 1458 1456 1455 1454 1452 1451 1450 1449 1448 1446 1445 1444 1443 1441 1440
1488 1488 1488 1489 1489 1489 1489 1489 1489 1489 1489 1489 1488 1488 1488 1488 1488 1487 1487 1486 1486 1485 1484 1484 1483 1482 1482 1481 1480 1479 1479 1478 1477 1477 1476 1475 1474 1474 1473 1472 1471 1470 1469 1468 1467 1466 1465 1464 1463 1462 1461 1460 1458 1457 1456 1454 1453 1452 1450 1449 1449 1447 1446 1445 1444 1442 1441 1439 1439
1487 1487 1488 1488 1488 1488 1488 1488 1488 1488 1488 1488 1488 1487 1487 1487 1487 1486 1486 1485 1485 1484 1484 1483 1482 1481 1481 1480 1479 1479 1478 1477 1477 1476 1475 1474 1473 1473 1472 1471 1470 1469 1468 1467 1466 1465 1464 1463 1462 1460 1459 1458 1457 1455 1454 1453 1451 1450 1449 1448 1446 1445 1444 1443 1442 1440 1439 1438 1436
1486 1487 1487 1487 1487 1487 1487 1487 1487 1487 1487 1487 1487 1487 1486 1486 1486 1485 1485 1484 1484 1483 1483 1482 1481 1481 1480 1479 1479 1478 1477 1476 1476 1475 1474 1473 1472 1472 1471 1470 1469 1468 1467 1466 1465 1464 1463 1462 1460 1459 1458 1456 1455 1454 1452 1451 1450 1448 1447 1446 1444 1444 1443 1441 1440 1439 1438 1436 1434
1485 1486 1486 1486 1486 1486 1487 1487 1487 1487 1487 1486 1486 1486 1486 1485 1485 1484 1484 1484 1483 1482 1482 1481 1480 1480 1479 1478 1478 1477 1476 1475 1474 1474 1473 1472 1471 1470 1469 1469 1468 1467 1466 1465 1464 1463 1461 1460 1459 1458 1456 1455 1453 1452 1450 1449 1448 1447 1445 1444 1443 1441 1440 1440 1439 1437 1436 1434 1433
1484 1485 1485 1485 1485 1486 1486 1486 1486 1486 1486 1486 1485 1485 1485 1484 1484 1484 1483 1483 1482 1481 1481 1480 1479 1479 1478 1477 1477 1476 1475 1474 1474 1473 1472 1471 1470 1469 1469 1468 1467 1465 1464 1464 1462 1461 1460 1459 1457 1456 1454 1453 1452 1450 1449 1448 1446 1445 1444 1442 1441 1439 1439 1438 1437 1435 1434 1432 1430
1484 1484 1484 1485 1485 1485 1485 1485 1485 1485 1485 1485 1485 1484 1484 1484 1483 1483 1482 1482 1481 1480 1480 1479 1479 1478 1477 1476 1476 1475 1474 1473 1473 1472 1471 1470 1469 1468 1467 1466 1465 1464 1463 1462 1461 1459 1458 1457 1455 1454 1452 1451 1450 1448 1447 1446 1444 1443 1442 1440 1439 1438 1437 1435 1434 1433 1432 1430 1428
1483 1483 1484 1484 1484 1484 1484 1484 1484 1484 1484 1484 1484 1484 1483 1483 1482 1482 1481 1481 1480 1479 1479 1478 1478 1477 1476 1475 1474 1474 1473 1472 1471 1471 1470 1469 1468 1467 1466 1465 1464 1463 1462 1461 1459 1458 1456 1455 1453 1452 1450 1449 1448 1447 1445 1444 1443 1441 1440 1439 1437 1436 1435 1434 1432 1431 1429 1428 1426
1482 1483 1483 1483 1484 1484 1484 1484 1484 1484 1483 1483 1483 1483 1482 1482 1482 1481 1480 1480 1479 1479 1478 1477 1477 1476 1475 1474 1474 1473 1472 1471 1470 1469 1469 1468 1467 1466 1465 1464 1463 1462 1460 1459 1458 1456 1454 1453 1451 1450 1449 1447 1446 1445 1444 1442 1441 1439 1438 1437 1435 1434 1433 1431 1430 1429 1427 1426 1424
1482 1482 1482 1483 1483 1483 1483 1483 1483 1483 1483 1482 1482 1482 1481 1481 1481 1480 1480 1479 1479 1478 1477 1476 1476 1475 1474 1473 1473 1472 1471 1470 1469 1469 1468 1467 1466 1464 1464 1462 1461 1460 1459 1457 1456 1454 1453 1451 1450 1448 1447 1445 1444 1443 1442 1441 1439 1438 1436 1435 1434 1432 1431 1429 1428 1427 1425 1424 1422
1481 1481 1482 1482 1482 1482 1482 1482 1482 1482 1482 1481 1481 1481 1480 1480 1480 1479 1479 1478 1478 1477 1476 1475 1475 1474 1473 1472 1471 1471 1470 1469 1468 1467 1466 1465 1464 1463 1462 1461 1459 1458 1457 1455 1454 1453 1451 1450 1448 1447 1445 1444 1442 1441 1440 1439 1438 1436 1435 1434 1432 1431 1429 1428 1426 1425 1423 1422 1420
1480 1481 1481 1481 1481 1481 1481 1481 1481 1481 1481 1480 1480 1480 1479 1479 1479 1478 1478 1477 1477 1476 1475 1474 1474 1473 1472 1471 1470 1470 1469 1468 1467 1466 1465 1464 1463 1462 1460 1459 1458 1456 1455 1454 1452 1451 1449 1448 1447 1445 1444 1442 1441 1439 1438 1437 1436 1434 1433 1432 1430 1429 1428 1426 1424 1423 1422 1420 1419
1480 1480 1480 1480 1480 1480 1480 1480 1480 1480 1480 1479 1479 1479 1479 1478 1478 1477 1477 1476 1475 1475 1474 1473 1473 1472 1471 1470 1469 1469 1468 1467 1466 1465 1464 1463 1461 1460 1459 1458 1456 1455 1453 1452 1450 1449 1448 1446 1445 1444 1442 1441 1439 1438 1436 1435 1434 1433 1431 1430 1429 1427 1426 1424 1423 1422 1420 1419 1417
1479 1479 1479 1480 1480 1480 1480 1479 1479 1479 1479 1479 1479 1478 1478 1478 1477 1476 1476 1475 1474 1474 1473 1472 1472 1471 1470 1469 1468 1468 1466 1465 1464 1464 1462 1461 1460 1459 1457 1456 1454 1453 1452 1450 1449 1447 1446 1444 1443 1442 1440 1439 1438 1436 1435 1433 1432 1431 1429 1428 1427 1426 1424 1423 1422 1420 1419 1417 1415
1478 1479 1479 1479 1479 1479 1479 1479 1479 1478 1478 1478 1478 1477 1477 1477 1476 1475 1474 1474 1473 1473 1472 1471 1470 1469 1469 1468 1467 1466 1465 1464 1463 1462 1461 1460 1459 1457 1456 1454 1453 1452 1450 1449 1447 1446 1444 1443 1441 1440 1439 1437 1436 1434 1433 1432 1430 1429 1428 1427 1425 1424 1423 1421 1420 1419 1417 1416 1414
1478 1478 1478 1478 1478 1478 1478 1478 1478 1477 1477 1477 1477 1476 1476 1475 1475 1474 1474 1473 1472 1471 1471 1470 1469 1469 1468 1467 1466 1465 1464 1463 1462 1461 1459 1459 1457 1456 1454 1453 1451 1450 1449 1447 1445 1444 1443 1441 1440 1438 1437 1435 1434 1432 1431 1429 1428 1427 1426 1425 1424 1422 1421 1420 1418 1417 1415 1414 1412
1477 1477 1477 1477 1477 1477 1477 1477 1477 1476 1476 1476 1476 1475 1475 1474 1474 1473 1472 1472 1471 1470 1469 1469 1468 1467 1466 1465 1464 1464 1463 1462 1461 1459 1458 1457 1456 1454 1453 1451 1450 1448 1447 1445 1444 1443 1441 1439 1438 1436 1435 1433 1432 1430 1429 1428 1427 1425 1424 1423 1422 1421 1419 1418 1417 1415 1414 1412 1410
1476 1476 1476 1476 1476 1476 1476 1476 1476 1475 1475 1475 1475 1474 1474 1473 1473 1472 1471 1470 1470 1469 1469 1468 1467 1466 1465 1464 1463 1462 1461 1460 1459 1458 1457 1456 1454 1453 1451 1450 1448 1447 1445 1444 1442 1441 1439 1438 1436 1435 1433 1432 1430 1429 1428 1427 1425 1424 1423 1421 1420 1419 1418 1416 1415 1413 1412 1410 1409
1475 1475 1475 1475 1475 1475 1475 1475 1475 1474 1474 1474 1474 1473 1473 1472 1471 1471 1470 1469 1469 1468 1467 1467 1466 1465 1464 1463 1462 1461 1460 1459 1458 1457 1456 1454 1453 1451 1450 1448 1447 1445 1444 1442 1441 1439 1438 1436 1434 1433 1432 1430 1429 1428 1426 1425 1424 1423 1421 1419 1418 1417 1415 1414 1413 1411 1410 1409 1407
1474 1474 1474 1474 1474 1474 1474 1474 1474 1474 1473 1473 1473 1472 1472 1471 1470 1470 1469 1469 1468 1467 1466 1465 1464 1464 1463 1462 1461 1460 1459 1458 1456 1455 1454 1453 1451 1450 1448 1447 1445 1444 1442 1441 1439 1438 1436 1434 1433 1431 1430 1429 1428 1426 1425 1424 1423 1421 1419 1418 1416 1415 1413 1412 1411 1410 1408 1406 1405
1474 1474 1474 1474 1473 1473 1473 1473 1473 1473 1472 1472 1472 1471 1470 1470 1469 1469 1468 1468 1467 1466 1465 1464 1464 1463 1462 1461 1460 1459 1458 1456 1455 1454 1452 1451 1449 1448 1447 1445 1444 1442 1441 1439 1438 1437 1435 1434 1432 1431 1429 1428 1426 1425 1424 1422 1421 1419 1418 1416 1415 1413 1411 1410 1409 1408 1406 1405 1404
1473 1473 1473 1473 1472 1472 1472 1472 1472 1472 1471 1471 1470 1470 1469 1469 1468 1468 1467 1466 1466 1465 1464 1463 1462 1461 1460 1459 1459 1458 1456 1455 1454 1452 1450 1449 1448 1446 1445 1444 1442 1440 1439 1438 1436 1435 1434 1433 1431 1430 1428 1426 1425 1423 1422 1420 1419 1418 1416 1415 1413 1411 1410 1408 1406 1405 1404 1403 1402
1472 1472 1472 1472 1472 1471 1471 1471 1471 1471 1470 1470 1469 1469 1469 1468 1467 1467 1466 1465 1464 1464 1463 1462 1461 1460 1459 1458 1457 1456 1455 1454 1452 1450 1449 1447 1446 1444 1443 1442 1440 1439 1438 1436 1435 1433 1432 1431 1429 1428 1427 1425 1424 1422 1420 1419 1417 1416 1414 1413 1411 1410 1409 1407 1405 1404 1402 1401 1400
1471 1471 1471 1471 1471 1470 1470 1470 1470 1470 1469 1469 1469 1468 1467 1467 1466 1465 1465 1464 1463 1462 1462 1461 1460 1459 1458 1457 1456 1455 1453 1452 1450 1449 1447 1446 1444 1443 1442 1440 1439 1437 1436 1434 1433 1432 1430 1429 1428 1427 1425 1424 1422 1420 1419 1417 1415 1414 1413 1411 1410 1408 1407 1405 1404 1402 1401 1399 1398
1470 1470 1470 1470 1470 1470 1469 1469 1469 1469 1468 1468 1467 1467 1466 1466 1465 1464 1464 1463 1462 1461 1460 1459 1459 1458 1457 1456 1454 1453 1452 1450 1449 1447 1446 1444 1443 1441 1440 1439 1437 1436 1434 1433 1432 1430 1429 1427 1426 1425 1424 1422 1421 1419 1417 1415 1414 1412 1411 1409 1408 1407 1405 1404 1402 1401 1399 1398 1396
1469 1469 1469 1469 1469 1469 1469 1468 1468 1468 1467 1467 1466 1466 1465 1464 1464 1463 1463 1462 1461 1460 1459 1459 1458 1457 1456 1454 1453 1452 1450 1449 1447 1446 1444 1443 1441 1440 1438 1437 1435 1434 1433 1431 1430 1428 1427 1426 1424 1423 1422 1420 1419 1417 1415 1414 1412 1411 1409 1408 1407 1405 1404 1402 1401 1399 1398 1396 1394
1469 1469 1468 1468 1468 1468 1468 1467 1467 1467 1466 1466 1465 1465 1464 1464 1463 1462 1461 1461 1460 1459 1459 1458 1457 1455 1454 1453 1452 1450 1449 1447 1446 1444 1443 1441 1439 1438 1437 1435 1434 1433 1431 1430 1428 1427 1425 1424 1423 1421 1420 1419 1417 1416 1414 1412 1411 1409 1408 1406 1405 1404 1402 1401 1399 1398 1396 1395 1393
1468 1468 1468 1467 1467 1467 1467 1466 1466 1466 1465 1465 1464 1464 1463 1463 1462 1461 1460 1459 1459 1458 1457 1456 1455 1454 1453 1451 1450 1449 1447 1446 1444 1443 1441 1440 1438 1437 1435 1434 1433 1431 1429 1428 1427 1425 1424 1422 1421 1419 1418 1417 1415 1414 1412 1411 1409 1408 1406 1405 1404 1402 1401 1399 1398 1396 1395 1394 1392
1467 1467 1467 1467 1466 1466 1466 1465 1465 1465 1464 1464 1463 1463 1462 1462 1461 1460 1459 1459 1458 1457 1456 1455 1454 1452 1451 1449 1448 1447 1445 1444 1443 1441 1440 1438 1437 1435 1434 1432 1431 1429 1428 1426 1425 1424 1422 1421 1419 1418 1416 1415 1414 1412 1410 1409 1408 1406 1405 1403 1402 1401 1399 1398 1397 1395 1394 1392 1391
1466 1466 1466 1466 1465 1465 1465 1465 1464 1464 1463 1463 1462 1462 1461 1460 1460 1459 1458 1458 1457 1456 1455 1454 1453 1451 1449 1448 1447 1445 1444 1443 1441 1440 1438 1437 1435 1434 1432 1431 1429 1428 1427 1425 1424 1422 1420 1419 1418 1416 1415 1413 1412 1410 1409 1407 1406 1404 1403 1402 1400 1399 1398 1396 1395 1394 1392 1391 1389
1465 1465 1465 1465 1464 1464 1464 1464 1463 1463 1463 1462 1461 1461 1460 1459 1459 1458 1457 1457 1456 1455 1454 1453 1451 1450 1448 1447 1446 1444 1443 1441 1439 1438 1437 1435 1434 1432 1431 1429 1428 1427 1425 1424 1422 1420 1419 1417 1416 1414 1413 1412 1410 1409 1407 1406 1404 1403 1402 1400 1399 1397 1396 1395 1394 1392 1391 1389 1388
1464 1464 1464 1464 1464 1464 1463 1463 1462 1462 1462 1461 1460 1460 1459 1459 1458 1457 1456 1455 1454 1454 1452 1451 1449 1448 1447 1445 1444 1443 1441 1440 1438 1437 1435 1434 1432 1431 1429 1428 1426 1425 1424 1422 1420 1419 1417 1416 1414 1413 1412 1410 1409 1407 1406 1404 1403 1401 1400 1399 1397 1396 1394 1393 1392 1390 1389 1388 1386
1464 1464 1463 1463 1463 1463 1462 1462 1461 1461 1460 1460 1459 1459 1458 1458 1457 1456 1455 1454 1453 1452 1451 1449 1448 1447 1445 1444 1443 1441 1440 1439 1437 1435 1434 1433 1431 1429 1428 1426 1424 1423 1422 1420 1419 1417 1416 1414 1413 1412 1410 1409 1407 1406 1404 1403 1401 1400 1398 1397 1395 1394 1393 1391 1390 1389 1387 1386 1384
1463 1463 1462 1462 1462 1461 1461 1461 1460 1460 1459 1459 1459 1458 1457 1457 1456 1455 1454 1453 1451 1450 1449 1448 1446 1445 1444 1443 1441 1440 1439 1438 1436 1434 1433 1431 1430 1428 1426 1424 1423 1422 1420 1419 1417 1416 1414 1413 1412 1411 1410 1408 1407 1405 1403 1401 1400 1398 1397 1395 1394 1392 1391 1390 1389 1387 1385 1384 1383
1462 1462 1461 1461 1461 1461 1460 1460 1459 1459 1459 1458 1457 1457 1456 1455 1455 1454 1453 1451 1450 1449 1447 1446 1445 1444 1442 1441 1439 1438 1437 1436 1435 1434 1432 1430 1429 1427 1425 1424 1422 1420 1419 1418 1416 1414 1413 1412 1411 1410 1409 1407 1406 1404 1402 1400 1398 1397 1395 1394 1392 1390 1389 1388 1387 1385 1384 1382 1380
1461 1461 1460 1460 1460 1460 1459 1459 1459 1458 1458 1457 1456 1456 1455 1454 1454 1452 1451 1450 1449 1447 1446 1445 1444 1442 1441 1439 1438 1437 1436 1435 1434 1432 1431 1429 1427 1426 1424 1422 1420 1419 1418 1416 1414 1413 1412 1411 1410 1409 1408 1406 1404 1403 1401 1399 1397 1395 1394 1392 1391 1389 1388 1386 1385 1384 1382 1379 1378
1460 1460 1459 1459 1459 1459 1459 1458 1458 1457 1457 1456 1455 1455 1454 1453 1452 1451 1450 1449 1448 1446 1445 1444 1442 1441 1440 1439 1437 1436 1434 1433 1432 1431 1429 1428 1426 1424 1423 1421 1419 1417 1416 1415 1413 1412 1411 1410 1409 1408 1406 1405 1403 1401 1400 1398 1396 1394 1392 1391 1389 1388 1386 1385 1383 1381 1379 1377 1376
Wind_Speed
11 10 9 8 7 6 5 5 5 5 6 7 7 8 10 11 12 13 13 13 14 14 15 15 16 16 16 16 16 17 18 18 19 19 19 19 19 19 19 18 18 18 19 19 20 20 21 22 23 24 25 26 27 27 28 29 29 30 30 30 29 28 27 27 26 26 26 26 27
12 10 9 7 6 5 4 4 4 4 5 6 7 9 10 11 12 13 13 13 13 14 14 15 15 15 15 16 16 17 18 18 19 19 19 19 19 18 18 18 18 18 19 19 20 21 22 23 24 25 26 27 28 29 29 30 30 30 30 30 29 28 27 27 27 27 27 28 28
10 9 7 6 5 4 3 3 3 4 5 6 7 9 10 11 12 13 13 13 13 14 14 15 15 15 15 16 16 17 18 19 19 19 19 19 18 18 18 18 18 18 19 20 21 22 23 24 25 26 27 28 29 30 30 30 30 30 30 30 29 28 27 27 27 27 28 29 30
8 7 6 5 4 3 2 2 3 4 5 6 7 9 10 11 12 13 13 13 13 14 14 14 15 15 15 16 17 18 18 19 19 19 19 18 18 17 17 18 18 19 19 20 22 23 24 25 26 27 28 29 30 30 31 31 31 30 30 29 28 28 27 27 28 28 29 30 31
8 7 5 4 3 2 1 2 3 4 5 6 8 9 10 11 12 13 13 13 13 14 14 14 15 15 16 16 17 18 19 19 19 19 18 18 17 17 17 18 18 19 20 21 22 24 25 26 27 28 29 30 30 31 31 31 30 30 29 29 28 28 28 28 29 29 30 32 32
7 6 5 4 2 1 0 2 3 4 5 7 8 9 11 12 12 13 12 13 13 14 14 14 15 15 16 17 17 18 19 19 19 18 17 17 17 17 17 18 19 20 21 22 24 25 26 27 28 29 30 30 31 31 30 30 30 29 29 29 28 28 28 29 29 31 32 33 34
7 6 5 3 2 1 1 2 3 5 6 7 8 10 11 12 12 12 13 13 13 14 14 15 15 16 16 17 18 18 18 18 18 17 17 16 17 17 18 18 19 21 22 23 25 26 27 28 29 30 30 30 31 30 30 30 29 29 29 29 28 28 29 29 30 32 33 34 35
7 6 4 3 2 1 1 2 4 5 6 7 8 10 10 11 12 12 13 13 14 14 14 15 15 16 16 17 18 18 18 18 17 17 16 16 17 17 18 19 20 22 23 24 25 27 28 28 29 30 30 30 30 30 30 29 29 28 28 29 29 29 29 30 31 32 34 35 35
7 6 5 3 2 1 1 2 4 5 6 7 8 9 10 11 12 12 13 13 14 14 14 15 15 16 17 17 18 18 17 17 16 16 16 17 17 18 19 20 21 23 24 25 26 27 28 29 30 30 30 30 30 30 29 29 28 28 29 29 30 30 31 31 32 33 34 35 36
7 6 5 4 3 1 1 2 4 5 6 7 8 9 10 11 12 12 13 14 14 14 15 15 15 16 17 17 17 17 17 16 16 16 16 17 18 19 20 21 23 24 25 26 27 28 29 30 30 30 30 30 29 29 29 28 28 29 29 29 30 31 32 32 33 34 35 36 37
8 6 5 4 3 2 1 3 4 5 7 7 8 9 10 11 12 12 13 14 14 14 15 15 16 16 17 17 17 16 16 16 16 16 17 18 19 20 21 22 24 25 26 27 28 29 29 30 30 30 30 29 29 29 28 28 28 29 30 30 31 32 33 34 34 35 36 37 37
8 7 5 4 3 2 2 3 4 6 7 8 8 9 10 11 12 12 13 13 14 14 15 15 16 16 16 16 16 16 15 16 16 17 18 19 20 21 22 23 25 26 27 28 29 29 30 30 30 30 30 29 29 28 28 28 29 29 30 31 31 32 33 34 35 36 37 37 38
8 7 6 5 3 2 2 3 5 6 7 8 8 9 10 11 12 12 13 13 13 14 15 15 16 16 16 16 15 15 15 16 16 17 18 20 21 22 23 24 26 27 28 28 29 30 30 30 30 30 29 29 29 28 28 29 29 30 31 31 32 33 34 35 36 37 37 38 38
8 7 6 4 3 2 3 4 5 6 7 8 8 9 10 11 12 12 12 13 13 14 15 15 16 16 15 15 15 15 15 16 17 18 19 21 22 23 24 26 27 28 28 29 30 30 30 29 29 29 29 29 29 29 29 29 29 30 31 31 32 33 34 35 36 37 37 38 38
8 7 6 4 3 3 3 4 5 6 7 8 8 9 10 11 12 12 12 13 13 14 15 15 15 15 14 14 14 15 16 17 18 19 20 22 23 24 25 27 28 28 29 30 30 30 29 29 28 28 28 29 29 29 29 29 29 30 30 31 32 33 34 35 36 36 37 37 38
8 7 5 4 3 3 4 5 6 7 7 8 9 9 10 11 12 12 12 13 14 14 15 15 14 14 14 14 14 15 17 18 19 20 22 23 24 25 27 28 28 29 30 30 30 29 29 28 28 28 28 29 29 29 29 30 30 30 31 31 32 33 34 35 35 36 36 37 38
8 6 4 3 3 4 4 6 7 7 8 8 9 9 10 11 12 12 13 13 14 14 14 14 14 13 13 14 15 16 18 19 20 21 23 24 25 27 28 29 29 30 30 30 29 29 28 28 28 28 28 29 29 29 30 30 30 30 31 31 32 33 33 34 35 35 36 37 38
7 5 4 3 4 4 5 6 7 8 8 8 9 10 11 11 12 12 13 13 13 14 14 13 13 13 14 15 16 17 19 20 21 22 24 25 26 28 29 29 30 30 29 29 28 28 28 28 28 28 28 29 29 29 29 30 30 30 31 31 32 33 33 34 34 35 36 37 39
7 5 4 4 4 5 6 7 8 8 8 9 9 10 11 12 12 12 13 13 13 13 13 13 13 13 14 15 17 18 20 21 22 24 25 26 27 28 29 29 29 29 29 28 28 28 28 28 28 29 29 29 29 30 30 30 30 30 31 31 32 32 33 33 34 35 36 38 39
6 5 4 4 5 5 6 7 8 8 8 9 10 11 11 12 12 12 12 13 13 13 13 13 13 14 15 17 18 19 21 22 23 25 26 27 28 29 29 29 29 28 28 27 27 27 28 28 29 29 29 30 30 30 30 30 30 30 31 31 32 32 33 34 34 35 37 38 39
6 5 4 4 5 6 7 8 8 8 9 9 10 11 12 12 12 12 12 12 12 12 12 13 14 15 16 18 19 20 22 23 24 26 27 28 28 29 29 28 28 28 27 27 27 27 28 28 29 29 30 30 30 30 30 30 30 31 31 32 32 32 33 34 35 36 37 38 38
5 5 4 5 5 6 7 8 8 8 9 9 10 11 12 12 12 12 12 12 12 12 13 14 15 16 18 19 20 22 23 24 25 26 27 28 28 28 28 27 27 27 27 27 27 28 28 29 29 29 30 30 29 29 29 29 30 30 31 32 32 33 34 35 35 36 37 37 36
5 5 5 5 6 7 7 7 7 8 9 10 10 11 11 12 12 12 12 12 12 12 13 14 16 17 19 20 22 23 24 25 26 27 28 28 28 27 27 26 26 26 26 27 27 28 28 29 29 29 29 29 29 29 29 29 30 30 31 32 33 33 34 35 36 36 36 36 34
5 5 5 6 7 7 7 7 7 8 9 10 10 11 11 11 11 11 11 11 12 13 14 15 17 18 20 21 22 24 25 26 27 28 28 27 27 26 26 26 26 26 26 27 27 27 28 28 29 29 28 28 28 28 28 29 29 30 31 32 33 34 35 35 35 35 35 34 32
5 5 6 7 7 7 7 7 7 8 9 10 11 11 11 11 11 11 11 11 12 13 15 16 18 19 21 22 23 25 26 27 27 28 28 27 26 26 26 26 26 26 27 27 27 27 27 27 27 27 27 27 28 28 28 28 29 30 31 32 33 34 35 35 35 34 34 32 30
5 6 7 7 8 8 7 7 8 9 10 11 11 11 11 11 10 11 11 12 13 14 16 17 19 20 22 23 24 25 26 27 27 27 27 27 26 26 26 26 26 27 27 27 27 27 27 27 26 26 26 26 27 28 28 29 29 30 31 32 32 33 34 34 35 34 32 30 29
6 7 7 8 8 8 7 8 9 10 10 11 11 11 10 10 10 11 12 13 14 16 17 18 20 21 23 24 25 26 26 26 26 26 26 26 26 26 26 27 27 27 27 27 27 27 27 27 26 25 25 26 26 27 28 29 30 30 31 31 32 32 33 33 33 33 31 30 30
7 8 8 8 8 8 8 9 10 10 11 11 10 10 10 10 11 12 13 14 15 17 18 19 21 22 23 25 25 26 26 26 26 26 25 26 26 26 27 27 27 27 27 27 27 27 27 26 26 25 25 25 26 27 28 29 30 30 31 31 31 31 32 32 31 31 30 30 30
8 8 8 8 8 8 9 9 10 10 10 10 10 10 10 10 11 12 14 15 16 18 19 20 22 23 24 25 26 26 26 26 25 25 26 26 26 26 27 27 27 27 27 27 27 27 27 26 26 26 25 25 26 27 28 28 29 30 30 31 31 31 31 30 30 30 30 29 30
8 8 8 8 8 8 9 10 10 10 10 9 9 9 10 11 12 13 15 16 17 19 20 21 23 24 25 25 25 26 25 25 25 25 26 26 27 27 27 27 27 28 27 27 27 27 27 26 26 26 26 26 26 27 27 28 29 29 30 30 30 30 29 29 29 29 29 29 30
8 8 8 8 8 9 9 9 10 9 9 9 9 10 10 11 13 14 15 17 18 20 21 22 23 24 24 25 25 25 25 25 26 26 26 26 27 27 27 28 28 28 28 27 27 27 27 27 26 26 26 26 26 27 27 28 28 29 30 30 29 29 28 28 27 27 27 28 30
8 8 7 8 8 9 9 9 9 9 8 9 9 10 11 12 13 15 16 18 19 20 22 23 24 24 25 25 25 25 25 26 26 26 26 26 27 27 28 28 28 28 27 27 27 27 27 27 27 27 26 26 26 27 27 28 28 29 29 28 27 27 27 26 27 27 28 29 30
8 7 8 8 8 9 9 8 8 8 8 9 9 10 11 13 14 15 17 18 20 21 22 23 24 24 25 25 25 26 26 26 26 26 26 26 27 27 28 28 28 28 27 27 27 27 27 27 27 27 26 26 26 27 27 27 27 27 27 26 26 25 25 26 27 28 29 30 31
7 8 8 8 8 8 8 8 7 8 8 9 10 11 12 14 15 16 18 19 20 21 22 23 24 24 25 25 25 26 26 26 26 26 27 27 27 27 28 28 28 27 27 27 27 27 27 27 27 26 26 26 26 26 27 27 27 26 25 25 25 25 26 27 28 29 30 30 30
8 8 8 8 8 7 7 7 7 8 8 9 10 11 13 14 16 17 19 20 21 22 23 23 24 24 25 25 26 26 26 27 27 27 27 27 27 27 28 28 28 28 27 27 27 27 27 27 26 26 26 26 26 26 26 26 26 25 25 25 25 26 27 28 29 29 29 29 29
8 8 8 8 7 6 6 6 7 8 8 9 11 12 13 15 16 18 19 21 22 23 23 24 24 25 25 26 26 26 26 27 27 27 27 27 27 28 28 28 28 28 28 27 27 27 26 26 25 25 25 26 26 26 25 25 25 25 25 25 26 27 28 29 29 29 28 28 29
8 8 7 7 6 6 6 6 7 8 9 10 12 13 14 16 17 19 20 21 23 23 24 25 25 25 26 26 26 26 26 26 27 27 27 27 27 28 29 29 29 28 28 27 27 26 25 25 24 25 25 25 25 25 25 25 25 25 26 27 28 28 29 29 29 28 28 28 29
8 7 6 6 5 5 6 6 7 8 9 11 12 14 15 16 18 19 21 22 23 24 25 25 26 26 26 26 27 27 26 26 26 27 27 27 27 28 28 29 29 28 28 27 26 26 25 24 24 24 24 24 24 24 25 25 26 26 27 28 29 29 29 28 28 28 28 29 31
7 6 5 5 5 5 6 7 8 9 10 12 13 15 16 17 19 20 22 23 24 25 25 26 26 26 27 27 27 27 27 26 26 27 27 27 27 27 28 29 29 28 28 27 26 25 24 24 24 23 23 23 23 24 25 26 26 27 27 28 28 29 28 28 28 28 30 31 32
6 5 4 4 4 5 6 7 8 10 11 13 14 15 17 18 20 21 23 24 24 25 26 26 27 27 27 27 27 27 28 27 27 27 27 27 27 27 28 28 28 28 28 27 27 26 24 24 23 23 23 23 23 24 25 26 27 27 27 27 28 29 29 29 29 30 32 33 32
4 4 4 4 4 5 6 8 9 10 12 13 15 16 18 19 21 22 23 24 25 25 26 26 27 27 27 27 27 28 28 28 27 27 27 27 27 28 28 28 28 28 28 28 27 27 25 24 23 23 23 23 23 24 25 26 26 27 27 28 29 29 30 30 32 33 34 33 31
Wind_Direction
156 153 148 143 135 125 112 96 81 68 56 47 38 31 24 18 12 7 4 1 357 353 351 349 347 345 344 342 342 341 341 340 340 339 338 337 336 335 334 333 333 332 332 331 330 330 330 329 329 330 330 330 330 331 331 331 331 331 331 331 332 332 331 331 330 330 330 330 330
161 156 151 144 136 124 110 92 76 61 48 38 31 24 19 14 9 5 1 356 352 349 347 344 343 341 339 337 337 338 339 339 338 337 336 335 334 333 332 332 332 331 330 330 329 329 329 329 330 330 330 331 331 331 331 331 331 331 332 332 332 332 332 331 331 331 331 331 332
161 155 148 142 134 125 111 89 66 50 39 29 22 17 13 9 6 2 357 352 349 346 343 340 338 336 335 334 335 335 336 337 336 335 334 333 332 332 331 331 331 330 330 329 329 329 329 330 330 331 331 331 332 332 332 332 332 332 332 332 332 332 332 332 332 332 332 332 332
159 153 148 144 140 132 112 72 45 33 25 19 14 10 8 4 1 358 355 350 347 343 339 336 334 332 332 332 333 333 334 334 333 333 332 332 331 331 331 330 330 330 329 330 330 330 330 331 331 332 332 332 332 332 332 332 332 332 332 332 332 333 333 333 333 333 333 332 331
160 157 155 155 152 142 100 42 26 18 13 10 8 5 3 0 358 355 352 349 344 340 336 334 331 330 329 330 331 331 332 331 331 331 331 331 331 330 330 330 330 330 330 330 331 331 331 332 332 332 332 332 332 332 332 332 332 332 332 332 333 333 333 333 333 333 332 331 330
169 168 170 173 174 172 27 10 10 8 5 2 3 2 360 357 355 353 350 346 342 338 335 332 329 328 328 328 328 329 330 330 330 330 330 330 330 330 330 330 330 330 331 331 332 332 332 332 332 332 332 332 332 332 332 332 332 332 332 333 333 333 334 334 333 332 331 330 328
183 184 186 189 196 221 344 358 1 0 0 360 0 360 358 355 353 350 347 344 341 337 333 330 327 326 326 326 327 328 328 329 329 330 330 330 331 331 331 331 331 331 332 332 332 332 332 332 332 332 332 332 332 332 332 333 333 333 333 333 333 334 334 333 332 331 330 328 326
196 199 201 203 211 238 331 353 357 359 359 359 360 358 356 353 350 347 344 342 339 335 331 328 326 325 325 325 326 327 328 329 329 330 331 331 331 331 331 331 331 332 332 332 332 332 332 332 332 332 332 332 332 333 333 334 334 333 333 333 333 334 333 332 331 329 328 326 325
204 207 208 210 212 222 318 351 356 357 358 358 358 356 353 350 347 344 342 339 336 333 330 327 325 324 324 325 325 327 328 329 330 331 331 331 331 332 331 332 332 332 333 333 332 332 332 332 332 332 333 333 333 334 334 334 334 334 333 333 333 333 332 331 329 327 326 325 324
209 209 209 206 206 219 302 346 352 354 354 354 353 352 350 347 344 342 339 336 334 332 328 326 324 323 323 324 326 327 328 330 331 331 332 332 332 332 332 332 332 332 332 332 332 332 332 332 332 333 333 334 334 335 335 335 334 333 332 332 332 331 330 329 327 326 325 324 324
212 212 209 205 207 227 308 345 349 350 350 350 349 348 346 343 341 338 337 335 332 328 325 324 323 322 323 324 326 328 329 331 332 332 332 332 332 333 333 333 332 332 332 332 332 332 332 332 333 333 334 334 335 335 335 335 334 333 332 331 331 329 327 326 326 325 324 324 324
214 213 211 210 215 243 315 342 346 346 346 345 344 344 343 340 337 335 334 332 327 324 322 321 321 321 323 325 327 329 330 332 332 333 333 333 333 333 333 332 332 332 332 332 332 332 333 334 334 334 335 335 335 336 335 335 333 332 331 330 329 327 325 324 324 323 323 323 323
214 213 211 212 222 255 315 338 343 343 341 339 339 339 338 336 334 332 330 327 324 322 320 320 320 321 324 326 328 330 331 332 332 332 333 333 333 333 332 332 332 332 332 332 332 333 334 335 335 335 335 335 335 336 335 334 333 331 330 328 327 325 324 323 323 323 323 323 323
213 213 214 218 233 272 312 329 334 336 335 334 333 333 332 331 330 328 326 324 321 320 319 319 320 322 325 327 329 331 332 332 332 333 333 333 333 332 332 332 332 332 332 332 333 334 335 336 336 336 336 335 335 335 334 333 332 330 328 326 325 323 322 322 322 321 321 322 322
212 213 217 227 249 281 306 318 325 329 331 330 329 328 327 326 325 325 323 321 320 319 319 320 322 324 326 328 330 331 332 332 333 333 333 333 332 332 332 332 332 332 332 333 333 334 335 336 337 337 336 335 334 333 333 332 330 329 327 325 323 322 321 321 320 320 320 320 321
212 214 220 234 258 283 301 313 321 326 328 328 326 325 324 323 322 322 320 319 319 319 319 321 322 325 327 329 331 332 333 333 333 333 333 333 332 332 332 332 332 332 332 333 334 335 336 337 337 337 336 334 333 332 331 330 329 328 326 324 323 321 320 319 319 318 318 319 319
212 216 224 243 265 284 299 311 319 324 327 327 326 324 322 321 320 319 318 317 318 319 320 322 324 327 329 331 332 333 333 334 334 334 333 333 332 332 332 332 332 332 333 334 335 336 336 337 337 336 334 333 332 331 330 329 328 327 325 323 321 320 318 317 317 316 317 317 318
214 219 233 253 272 286 300 311 319 324 327 327 325 323 321 320 318 317 317 317 319 320 322 324 327 329 332 333 334 334 335 334 334 334 333 333 332 332 332 332 332 333 334 335 336 337 337 337 336 335 333 332 331 330 329 328 327 326 324 322 320 318 316 315 315 315 315 316 318
217 226 242 260 276 291 303 313 320 325 328 328 326 324 321 319 318 317 317 319 321 323 324 327 330 332 334 335 335 335 335 335 334 333 333 332 332 332 332 332 333 333 334 335 336 337 337 336 335 334 332 331 330 329 329 328 326 324 322 319 317 316 314 313 313 313 314 316 317
222 233 249 266 282 296 307 316 323 328 330 329 326 324 321 319 318 318 319 321 323 325 328 330 333 334 335 335 335 335 335 334 334 333 332 332 332 332 332 333 333 334 335 336 337 337 336 335 334 332 331 330 330 329 328 326 324 321 319 317 315 314 313 312 312 313 314 316 318
227 239 256 274 289 301 312 320 326 330 330 328 326 323 320 319 318 320 321 323 326 328 331 333 335 336 336 336 336 335 335 334 333 332 332 332 332 332 333 333 334 335 336 337 337 336 335 334 333 332 331 330 329 328 326 324 321 319 316 314 313 312 311 311 312 313 315 317 319
231 245 265 282 296 308 317 323 327 329 328 326 324 322 320 320 320 322 324 326 329 331 334 335 336 336 336 336 336 335 334 334 333 332 332 332 332 332 333 334 335 336 337 337 337 336 334 333 332 331 330 329 327 325 323 320 318 316 314 312 311 310 310 311 312 314 316 318 321
236 253 273 291 305 313 319 323 325 326 326 324 322 321 321 321 322 324 327 329 332 334 335 336 336 337 337 337 336 335 334 333 332 332 331 332 332 333 334 335 336 337 338 338 337 335 334 332 331 330 329 326 324 321 319 317 315 313 312 311 310 310 310 311 313 315 317 320 322
242 261 282 300 309 314 318 320 322 323 323 322 322 322 322 323 324 327 330 332 334 336 336 337 337 337 337 336 336 334 333 332 331 331 331 332 333 334 336 336 337 338 338 337 336 335 333 332 330 328 326 323 320 317 315 314 313 312 311 310 310 310 311 312 314 316 318 321 323
248 271 290 302 308 312 314 317 320 321 322 323 323 323 324 325 327 330 333 336 336 337 337 337 338 337 337 336 335 333 332 331 331 331 332 333 335 336 337 338 338 338 337 336 335 334 332 330 328 325 322 319 317 315 314 313 312 311 310 310 310 311 312 313 315 317 319 321 322
259 279 293 301 306 309 312 316 320 322 323 324 324 324 325 327 330 333 336 338 338 338 338 338 338 337 336 335 333 332 332 332 332 333 334 335 336 338 338 339 338 338 337 335 334 332 331 329 327 324 321 318 316 314 313 312 311 310 310 310 310 311 313 314 316 317 319 320 320
268 283 294 301 305 309 313 318 322 323 324 324 325 325 327 330 334 337 339 339 339 339 339 338 337 336 335 334 332 332 332 333 334 335 336 337 338 338 339 339 338 337 336 335 333 332 330 329 327 324 321 318 315 314 313 312 311 310 310 310 311 312 313 315 316 317 318 318 318
274 288 296 302 306 311 315 320 322 323 323 324 325 326 330 335 338 339 339 339 339 339 338 338 337 336 334 333 332 332 333 334 336 337 338 338 339 339 338 338 337 336 335 334 332 331 330 329 327 324 321 318 316 314 312 311 311 311 311 311 312 313 313 314 315 316 317 317 317
279 290 298 303 308 313 317 320 322 322 322 323 326 330 335 339 340 340 339 339 339 339 338 337 336 335 334 333 333 334 335 337 338 339 339 339 339 339 338 338 337 336 335 333 332 332 331 329 327 323 321 318 316 315 313 312 312 311 311 312 312 313 314 314 315 315 316 316 316
284 292 299 305 310 315 317 320 320 321 322 325 329 335 339 341 340 339 339 339 339 339 338 336 335 334 334 334 335 336 337 338 340 340 340 340 339 338 338 337 336 335 334 333 333 332 331 329 326 323 320 319 317 315 314 313 312 312 312 312 313 313 314 314 314 315 315 316 317
288 295 302 308 312 315 318 319 320 321 324 328 334 339 341 340 339 339 339 339 339 338 337 336 335 335 335 336 337 338 339 340 341 341 341 340 339 338 337 337 336 335 334 334 333 332 331 328 325 323 321 320 318 316 314 313 312 312 312 312 313 313 313 314 314 315 316 316 317
292 300 306 311 314 316 317 319 320 323 328 334 339 340 340 339 339 339 339 339 338 337 337 336 336 336 337 338 339 340 341 342 342 342 342 341 339 338 337 336 336 335 335 335 334 332 330 327 325 323 321 320 318 316 314 313 312 312 312 313 313 313 313 313 314 315 316 317 317
298 305 310 313 315 316 317 319 321 327 333 338 340 340 339 339 339 340 339 338 338 337 337 337 338 339 340 341 341 342 342 343 343 343 342 341 339 338 336 336 336 336 336 335 334 332 330 327 325 323 322 320 319 316 315 314 314 314 313 313 312 312 312 312 314 315 316 317 317
302 308 312 314 316 315 317 319 325 332 337 340 339 338 338 339 340 340 339 338 338 338 338 339 340 341 342 343 343 343 343 343 343 343 342 341 339 338 337 337 337 337 337 335 334 331 329 327 326 324 323 321 319 318 317 316 316 315 314 313 312 312 312 313 314 316 317 317 317
303 309 312 313 313 314 317 324 331 337 339 337 337 338 339 340 341 340 339 338 338 339 340 341 342 343 344 344 344 344 344 344 344 343 342 341 340 338 337 337 338 338 337 336 333 331 329 328 327 325 324 322 321 320 319 318 317 315 314 313 312 313 314 315 316 317 317 318 319
303 308 310 310 312 315 323 331 336 337 336 335 336 338 340 341 341 340 339 339 339 340 342 343 344 345 345 345 345 345 345 345 344 343 342 342 340 339 338 338 338 339 338 336 334 331 330 329 328 327 326 324 323 322 321 319 317 315 314 313 314 315 316 317 318 318 319 319 321
304 306 307 307 312 320 329 335 336 334 334 336 338 340 341 341 341 340 340 340 341 343 344 345 345 346 345 345 345 345 346 345 344 343 342 342 341 340 339 338 339 339 338 336 334 332 330 330 330 329 328 326 325 323 321 319 317 316 315 315 315 316 317 319 319 319 319 320 323
305 305 305 309 318 326 332 334 334 333 336 338 340 341 341 341 341 341 342 343 344 345 345 346 346 346 346 345 345 345 346 346 345 343 342 342 342 341 339 338 338 338 338 336 334 333 332 331 331 331 329 328 326 324 321 319 317 317 316 316 317 318 319 320 320 320 320 322 326
303 303 306 314 323 330 332 332 333 336 338 341 342 342 342 342 342 343 344 345 346 346 346 346 346 346 346 346 345 345 345 345 345 344 343 343 342 341 340 338 338 338 338 337 335 334 333 333 332 332 331 329 326 323 321 319 318 318 318 318 319 320 321 321 321 320 321 326 330
301 304 311 320 327 330 332 334 337 340 341 342 342 342 343 343 344 345 346 347 347 347 346 346 346 346 346 346 345 344 343 344 345 345 344 343 342 342 341 339 338 338 338 338 337 335 334 333 333 332 331 329 326 323 321 320 319 319 319 320 321 322 322 321 320 320 323 327 330
301 308 317 324 329 332 334 337 340 342 343 343 343 344 344 345 346 347 347 347 347 347 346 346 346 346 346 345 344 343 343 343 344 345 344 343 342 342 341 340 340 339 339 339 337 336 334 334 333 332 331 329 326 323 322 321 320 320 321 321 321 322 322 322 321 323 325 326 327